This demonstration page uses our WeatherBlox Daily Observations layout. Learn more.

Left ArrowRight Arrow

34.16533, -84.80231

Hourly Observations for May 28, 2017

Temp ( °F °C ) Dew Point ( °F °C ) Humidity (%) Winds ( mph kmh ) Pressure ( in mb ) Visibility ( mi km ) Precip ( " mm )
12:53 am 00:53 Mostly Cloudy 71 21.7 63 17.2 76 76 N 17 28 29.98 1015 10 16 0.00 0.00
1:06 am 01:06 Cloudy with Thunderstorms 67 19.4 63 17.2 87 87 N 12 19 30.03 1017 9 14 0.00 0.03
1:18 am 01:18 Cloudy with Light Rain 65 18.3 64 17.8 97 97 VRB 5 7 30.00 1016 9 14 0.01 0.25
1:53 am 01:53 Mostly Cloudy 64 17.8 64 17.8 100 100 SSE 3 6 29.95 1014 10 16 0.01 0.25
2:53 am 02:53 Clear 63 17.2 63 17.2 100 100 VRB 3 6 29.92 1013 10 16 0.00 0.00
3:53 am 03:53 Mostly Clear 63 17.2 63 17.2 100 100 Calm 29.90 1013 10 16 0.00 0.00
4:53 am 04:53 Cloudy 63 17.2 63 17.2 100 100 ENE 5 7 29.87 1012 10 16 0.00 0.00
5:06 am 05:06 Cloudy with Nearby Thunderstorms 64 17.8 64 17.8 100 100 VRB 3 6 29.97 1015 5 8 0.03 0.76
5:12 am 05:12 Cloudy with Thunderstorms 64 17.8 64 17.8 100 100 VRB 7 11 29.97 1015 2 3 0.18 4.57
5:14 am 05:14 Cloudy with Strong Thunderstorms 63 17.2 63 17.2 100 100 VRB 3 6 30.00 1016 1 2 0.27 6.86
5:19 am 05:19 Cloudy with Strong Thunderstorms 63 17.2 63 17.2 100 100 VRB 6 9 30.00 1016 1 1 0.50 12.70
5:41 am 05:41 Cloudy with Strong Thunderstorms 63 17.2 63 17.2 100 100 S 5 7 30.03 1017 2 3 1.01 25.65
5:45 am 05:45 Cloudy with Strong Thunderstorms 63 17.2 63 17.2 100 100 SSE 5 7 30.03 1017 2 3 1.03 26.16
5:53 am 05:53 Cloudy with Strong Thunderstorms 63 17.2 63 17.2 100 100 E 8 13 29.94 1014 4 6 1.08 27.43
6:39 am 06:39 Mostly Sunny 63 17.2 63 17.2 100 100 SE 9 15 29.91 1013 10 16 0.03 0.76
6:53 am 06:53 Sunny 63 17.2 63 17.2 100 100 S 6 9 29.88 1012 10 16 0.03 0.76
7:17 am 07:17 Mostly Cloudy 64 17.8 64 17.8 100 100 Calm 29.97 1015 10 16 0.00 0.00
7:32 am 07:32 Cloudy 64 17.8 64 17.8 100 100 VRB 3 6 29.97 1015 10 16 0.00 0.00
7:53 am 07:53 Cloudy 64 17.8 64 17.8 100 100 Calm 29.95 1014 10 16 0.00 0.03
8:21 am 08:21 Cloudy 64 17.8 64 17.8 100 100 Calm 30.00 1016 10 16 0.00 0.00
8:53 am 08:53 Mostly Sunny 65 18.3 65 18.3 100 100 SW 3 6 29.96 1014 10 16 0.00 0.00
9:53 am 09:53 Partly Cloudy 69 20.6 66 18.9 90 90 VRB 5 7 29.96 1015 10 16 0.00 0.00
10:53 am 10:53 Mostly Cloudy 71 21.7 68 20 90 90 VRB 3 6 29.95 1014 10 16 0.00 0.00
11:10 am 11:10 Cloudy 71 21.7 68 20 90 90 VRB 5 7 29.97 1015 10 16 0.00 0.00
11:45 am 11:45 Partly Cloudy 74 23.3 69 20.6 85 85 VRB 6 9 29.97 1015 10 16 0.00 0.00
11:53 am 11:53 Mostly Sunny 74 23.3 69 20.6 85 85 SSW 5 7 29.92 1013 10 16 0.00 0.00
12:53 pm 12:53 Sunny 76 24.4 70 21.1 82 82 VRB 5 7 29.92 1013 10 16 0.00 0.00
1:53 pm 13:53 Sunny 79 26.1 69 20.6 72 72 SSW 8 13 29.89 1012 10 16 0.00 0.00
2:53 pm 14:53 Sunny 83 28.3 69 20.6 63 63 VRB 6 9 29.85 1011 10 16 0.00 0.00
3:53 pm 15:53 Sunny 82 27.8 65 18.3 56 56 VRB 7 11 29.87 1012 10 16 0.00 0.00
4:53 pm 16:53 Sunny 82 27.8 66 18.9 58 58 Calm 29.87 1012 10 16 0.00 0.00
5:53 pm 17:53 Sunny 82 27.8 65 18.3 56 56 VRB 5 7 29.89 1012 10 16 0.00 0.00
6:53 pm 18:53 Sunny 81 27.2 68 20 65 65 VRB 3 6 29.89 1012 10 16 0.00 0.00
7:53 pm 19:53 Sunny 79 26.1 67 19.4 67 67 Calm 29.89 1012 10 16 0.00 0.00
8:53 pm 20:53 Clear 71 21.7 70 21.1 96 96 Calm 29.89 1012 10 16 0.00 0.00
9:53 pm 21:53 Clear 69 20.6 69 20.6 100 100 Calm 29.89 1012 10 16 0.00 0.00
10:53 pm 22:53 Clear 68 20 68 20 100 100 Calm 29.91 1013 10 16 0.00 0.00
11:53 pm 23:53 Clear 67 19.4 67 19.4 100 100 Calm 29.92 1013 10 16 0.00 0.00

Powered by AerisWeather